Погода в Покровке

Погода в Покровке : погода сейчас, прогноз погоды и архив. Всё, что Вы хотите узнать о погоде в Покровке!

Поиск расширенной информации на нашем сайте:

Полезная информация: Марс, юпитер, венера, все это космос

Другие новости

Новости СМИ2

Главная страница сайта

Новости сайта

03.07.2017

Напоминаем, что на нашем специализированном сайте Метеоцентр.Азия вы можете получить высокодетализированные автоматические прогнозы погоды по пунктам России, СНГ и мира в авиационном формате (включающие направление и скорость ветра, видимость, явления погоды, количество и форму облачности, нижнюю и верхнюю границу облачности).

Рекомендуем: заказать музыкантов

Погода в Покровке - сегодня

Время (UTC), дата Ветер
(°,м/с) 
Видим.   Явления Облачность Т
(°С)
Тd
(°С)
f(%) Тe
(°С)
Pmin
(гПа)
dP
(гПа)
Po
(мм)
O2
(г/м3)
Тmin Tmax R s Состояние
почвы
03 19.11.17 340 (С) 6{11}  20000 м    9/9 600 м кучево-дожд. 
[Cb cap]
-9.7 -19.7 44 -15  1023.4  0.2  764  321           
06 19.11.17 320 (СЗ) 7{11}  20000 м    3/3 600 м 
[Cu hum]
-9.6 -22.5 34 -15  1023.2  -0.2  764  321           
09 19.11.17 010 (С) 20000 м    ясно 
-12.6 -21.3 48 -15  1023.2  764  324    -9.3       
12 19.11.17 090 (В) 20000 м    ясно 
-16.8 -21.3 68 -17  1024.4  1.1  765  330           
15 19.11.17 150 (ЮВ) 20000 м    ясно 
-17.1 -21.3 70 -17  1025  0.6  765  331           
18 19.11.17 150 (ЮВ) 20000 м    ясно 
-18.7 -21.9 76 -19  1024.9  -0.2  765  333           
21 19.11.17 160 (Ю) 20000 м    ясно 
-19.2 -22.5 75 -22  1024.5  -0.3  765  333  -20.5      равномерный
сухой снег
100% 
00 20.11.17 тихо ()   10 км    10/0 верхняя 
[Ci fib]
-15.9 -19.4 74 -16  1024.2  -0.3  765  329  -21.1         
03 20.11.17 260 (З) 20000 м    8/0 верхняя 
[Ci fib]
-8.4 -19.3 41 -10  1022.3  -1.8  763  319           
06 20.11.17 300 (СЗ) 20000 м    10/3 600 м верхняя 
[Sc|Ci fib]
-5.6 -17.8 38 -8  1020.4  -1.9  762  315           
09 20.11.17 060 (СВ) 20000 м    10/6 600 м верхняя 
[Sc diur, vesp|Ci fib]
-10.4 -17.8 55 -12  1021.9  1.5  763  321    -5.6       
12 20.11.17 120 (ЮВ) 20000 м    10/0 верхняя 
[Ci fib]
-14.4 -18.2 73 -14  1024.6  2.6  765  327           
15 20.11.17 тихо ()   20000 м    10/0 верхняя 
[Ci fib]
-17.2 -19.9 80 -17  1026.1  1.5  766  331           
18 20.11.17 180 (Ю) 20000 м    ясно 
-16.2 -18.8 80 -19  1027.5  1.3  767  330           
21 20.11.17 180 (Ю) 20000 м    ясно 
-14.7 -19 70 -15  1027.5  767  328  -17.8      равномерный
сухой снег
100% 
00 21.11.17 170 (Ю) 10 км    10/0 верхняя 
[Ci fib]
-12.7 -17 70 -16  1027.4  767  326  -18.2         
03 21.11.17 190 (Ю) 20000 м    10/0 верхняя 
[Ci fib]
-4.4 -16.2 39 -9  1023.8  -3.4  764  314           
06 21.11.17 180 (Ю) 7-12{13}  20000 м    10/1 600 м верхняя 
[Sc|Ci fib]
-2.8 -10.6 55 -7  1020.9  -2.9  762  311           
09 21.11.17 180 (Ю) 4{13}  20000 м    10/6 600 м верхняя 
[Sc|Ci fib]
-2.5 -7.3 70 -5  1018.3  -2.5  760  310    -2.3       
12 21.11.17 190 (Ю) 5{11}  20000 м    10/8 300 м верхняя 
[St|Ci fib]
-1 -5.5 71 -4  1017  -1.2  759  308           
15 21.11.17 180 (Ю) 20000 м    4/0 верхняя 
[Ci fib]
-0.8 -3.3 83 -3  1014.8  -2.3  758  307           
18 21.11.17 190 (Ю) 20000 м    1/1 300 м 
[St]
-0.8 -2.3 90 -2  1012.5  -2.2  756  306           
21 21.11.17 180 (Ю) 20000 м    4/4 300 м 
[St]
+0.5 -0.5 93 -2  1010.5  -1.9  755  304  -2.5      мокрый или
старый снег
50-90% 
00 22.11.17 180 (Ю) 10 км    3/3 600 м 
[Cu hum]
+1.1 -1.8 81 1011.3  0.8  755  303           
03 22.11.17 280 (З) 20000 м    1/1 600 м 
[Cu hum]
+4.7 -7.1 42 +3  1010  -1.2  754  300           
Время (UTC), дата Ветер
(°,м/с) 
Видим.   Явления Облачность Т
(°С)
Тd
(°С)
f(%) Тe
(°С)
Pmin
(гПа)
dP
(гПа)
Po
(мм)
O2
(г/м3)
Тmin Tmax R s Состояние
почвы

Для получения пояснительной информации подведите курсор к названию столбца.

ПОГОДА в Покровке - архив

Всё, что Вы хотите узнать о погоде в Покровке - удобно и подробно!

Выберите нужную дату (начиная с 1 января 2015* года) и нажмите кнопку "Найти".
Будут отображены архивные сводки погоды по пункту Покровка, начиная с указанной даты.


Отображать данные в формате CSV (для использования в таблицах Excel)


Внимание! Наш архив погоды предназначен исключительно для личного некоммерческого использования в познавательных целях. Если Вам необходимы официальные справки о состоянии погоды (для производственных, юридических, коммерческих и т.п. целей), обращайтесь в органы Росгидромета.

*Примечание: данная дата относится к архиву по метеостанциям СССР (Россия, СНГ, Балтия).
Архив по метеостанциям Зарубежной Европы и Азии (кроме Китая) хранится 10 дней, по другим регионам земного шара (Китай, Африка, Америка, Австралия, Океания) - 1 день.

Покровка - район местоположения метеостанции


Название, широта, долгота, высота метеостанции:
Покровка 43.9°ш. 131.7°д. 61 м над ур. моря [Российская Федерация]

Дополнительная информация

В oтличие oт бoльшинства пoгoдных сайтoв мы публикуем пoдрoбную метеoинфoрмацию в детальнoм прoфессиoнальнoм фoрмате.

Характеристики температуры и влажнoсти вoздуха измеряются на высoте 2 м в тени вдали oт зданий и деревьев.
Скoрoсть ветра измеряется на высoте 10 м (на урoвне рoста челoвека скoрoсть ветра ниже в 1.5-2 раза). Если метеoстанция нахoдится в гoрoде или в лесу, тo скoрoсть ветра занижена на 2-4 м/с пo сравнению с oткрытым местoм. Скoрoсть ветра над акватoриями крупных рек и oзёр, а также на вершинах хoлмoв на 2-5 м/с выше, чем в oбычных услoвиях.
Атмoсфернoе давление в разных тoчках местнoсти мoжет значительнo oтличаться oт давления на метеoстанции, в зависимoсти oт услoвий рельефа (при пoдъёме на 10 м давление пoнижается примернo на 1 мм рт.ст.).